Regional Weather Roundup
Issued by NWS Goodland, KS

Home | Current Version | Previous Version | Graphics & Text | Print | Product List | Glossary On
Versions: 1 2 3 4 5 6 7 8 9 10 11 12 13 14 15 16 17 18 19 20 21 22 23 24 25 26 27 28 29 30 31 32 33 34 35 36 37 38 39 40 41 42 43 44 45 46 47 48 49 50
000
ASUS43 KGLD 200108
RWRGLD

GOODLAND FORECAST AREA HOURLY WEATHER ROUNDUP
NATIONAL WEATHER SERVICE GOODLAND KS
600 PM MST FRI DEC 19 2014

...OFFICIAL OBSERVATIONS...

CITY           SKY/WX    TMP DP  RH WIND       PRES   REMARKS
GOODLAND KS    CLEAR     34  22  61 SW8       30.05S
HILL CITY KS   CLEAR     40  26  57 SW9       30.06S
IMPERIAL NEB   CLEAR     32  26  78 W7        30.02S
MCCOOK NEB     CLEAR     36  25  64 SW9       30.02F
AKRON CO       CLEAR     29  21  72 S9        30.02S
BURLINGTON CO  CLEAR     31  24  75 SW8       30.04S
LIMON CO       PTCLDY    24  18  77 N5        30.03S
$$

...UNOFFICIAL OBSERVATIONS...

CITY           SKY/WX    TMP DP  RH WIND       PRES   REMARKS
COLBY KS       CLEAR     34  30  86 SW7       30.06S
GOVE KS          N/A     37  32  82 MISG        N/A
NORTON KS      CLEAR     34  27  75 SW5       30.04R
SHARON SPRINGS   N/A     34  26  72 SW8         N/A
TRIBUNE KS     CLEAR     34  30  86 S7        30.08S
KIT CARSON CO    N/A     31  26  80 MISG        N/A
YUMA CO          N/A     28  21  75 SW6         N/A
$$


USA.gov is the U.S. government's official web portal to all federal, state and local government web resources and services.